Tracking 18980 objects as of 23-Feb-2018
HD Live streaming from Space Station
objects crossing your sky now

FENGYUN 1C DEB

Track FENGYUN 1C DEB now!
10-day predictions


NORAD ID: 29985
Int'l Code: 1999-025LK
Perigee: 846.5 km
Apogee: 887.5 km
Inclination: 99.0 °
Period: 102.1 minutes
Semi major axis: 7238 km
RCS: 0.129 m2 (medium)
Launch date: May 10, 1999
Source: People's Republic of China (PRC)
Launch site: Taiyaun Space Center, China (TSC)

Note: This is SATELLITE DEBRIS
aabbcc
Your satellite tracking list
Your tracking list is empty




NASA's NSSDC Master Catalog

Two Line Element Set (TLE):
1 29985U 99025LK  18053.55939747 -.00000106 +00000-0 -34508-4 0  9997
2 29985 098.9961 079.2250 0028347 336.4620 175.6867 14.09852537571838
Source of the keplerian elements: AFSPC